Погода в Епифани

Россия / Тульская область     53°49′36″N   38°33′09″E
темп.,
°C
ветер,
м/с
пор.,
м/с
влажн.,
%
обл.,
%
осадки,
мм/ч
давл.,
гПа
погр.,
м
17 августа, ср
ср1700:00+21в6144899 0.0 1018359
03:00+20в51250100 0.0 1018331
06:00+20в41251100 0.0 1018290
09:00+22всв61145100 0.0 1017378
12:00+26вюв6836100 0.0 1017981
15:00+28юв5637100 0.0 10161658
18:00+25юв484998 0.0 1016362
21:00+22в5951100 0.0 1016277
18 августа, чт
чт1800:00+22всв4945100 0.0 1016237
03:00+22всв61345100 0.0 1016433
06:00+21всв5124599 0.0 1016414
09:00+24в6103997 0.0 1016514
12:00+26всв7103870 0.1 1016788
15:00+27всв71035100 0.3 10151165
18:00+25всв7124098 0.0 1016618
21:00+23всв61342100 0.0 1016512
19 августа, пт
пт1900:00+23в61345100 0.0 1017777
03:00+20в4859100 0.0 1018373
06:00+18в61382100 1.1 1019650
09:00+17всв61379100 3.3 1020588
12:00+17всв71486100 0.6 1022674
15:00+17всв51278100 1.6 1023469
18:00+18в71572100 0.1 1023786
21:00+18вюв71578100 0.2 1023891
20 августа, сб
сб2000:00+17вюв71787100 3.1 1023849
03:00+16в81789100 7.2 1023742
06:00+16в91873100 0.0 1023665
09:00+17в61670100 0.3 1024532
12:00+23вюв91237100 0.0 1024965
15:00+25юв8113491 0.0 10231145
18:00+22вюв61242100 0.0 1023506
21:00+19в51343100 0.0 1023265
21 августа, вс
вс2100:00+19вюв51341100 0.0 1023329
03:00+18вюв41036100 0.0 1023239
06:00+17вюв41035100 0.0 1023252
09:00+19вюв51138100 0.0 1024379
12:00+23юв6928100 0.0 1023839
15:00+25вюв7925100 0.0 10231317
18:00+22в4837100 0.0 1022246
21:00+20в4936100 0.0 1022171